Back to catalog

METHANESAT

AliveScienceSSO
NORAD 59101·PAYLOAD·🇺🇸 United States

Launched Mar 4, 2024 from Vandenberg Space Force Base

Loading…

Next Passes (next 24 hours)

TLE

FreshSource: Space-Track

Epoch: Sep 14, 2026, 14:49 UTC

1 59101U 24043D   26257.61803352  .00001219  00000-0  10707-3 0  9990
2 59101  97.8566  29.1864 0011058  71.0342 289.2077 14.98440798138046

Track METHANESAT in real time with AllMySat

Download on the App Store